Find Starlink 5906

NORAD ID: 55962 Int'l Des: 2023-037 Owner: SPXS Country: US Constellation: starlink operational
LEOCIRCULAR

Live Position

Loading 3D Globe...

About Starlink 5906

Description loading...

Upcoming Passes

Passes for default location (London). Set your location on the main map for personalized predictions.

Altitude History

Loading altitude history...

Two-Line Element Set

1 55962U 23037BA 26126.12929811 .00001639 00000-0 14517-3 0 9992
2 55962 69.9982 119.7653 0003428 270.0538 90.0228 14.98317807173073
Epoch: May 6, 2026 • Age: 11 hours

Current Status

Altitude 585.0 km
Velocity 7.57 km/s
Sub-Earth Point -39.39°S, 24.91°E
Launch Date Mar 17, 2023
Age 3.1 years
Type internet

Technical Details

Classification Payload
Mass 305.00 kg
Dry Mass 290.00 kg
Total Mass 305.00 kg
Length 0.20 m
Diameter 2.80 m
Span 9.00 m
Shape Box + pan
Manufacturer SPXS
Bus Type Starlink
Phase Status In Orbit
Owner/State SPXS/US

Most Searched